International Skating Union - Official Site

ISU European Speed Skating Championships 2015
January 10-11, 2015

Draw | Lap Times | Index | Classification

Referee: Knut Arthur  OLSEN  (NOR)
Starter: Roman  DANILOV  (RUS)
StartTime: EndTime: Air Temp: Ice Temp: Humidity:
20:30 21:09 12.9℃ -5.2℃ 35.7%
Result 5000m Men
Rankings as of Jan 11 2015 1:24PM
Rank: No.: Name: Nation: Time: Behind: Points:
1 113 Sven  Kramer NED NED 6:17.32200m - 18.38 - (18.3)
600m - 47.47 - (29.0)
1000m - 1:17.70 - (30.2)
1400m - 1:47.56 - (29.8)
1800m - 2:17.11 - (29.5)
2200m - 2:46.84 - (29.7)
2600m - 3:16.50 - (29.6)
3000m - 3:46.12 - (29.6)
3400m - 4:15.97 - (29.8)
3800m - 4:45.80 - (29.8)
4200m - 5:15.90 - (30.1)
4600m - 5:46.41 - (30.5)
5000m - 6:17.32 - (30.9)
37.732
2 114 Wouter  olde Heuvel NED NED 6:22.32200m - 18.57 - (18.5)
600m - 48.00 - (29.4)
1000m - 1:17.66 - (29.6)
1400m - 1:47.56 - (29.9)
1800m - 2:17.92 - (30.3)
2200m - 2:48.20 - (30.2)
2600m - 3:18.60 - (30.4)
3000m - 3:49.17 - (30.5)
3400m - 4:19.73 - (30.5)
3800m - 4:50.38 - (30.6)
4200m - 5:20.77 - (30.3)
4600m - 5:51.40 - (30.6)
5000m - 6:22.32 - (30.9)
5.00 38.232
3 118 Sverre  Lunde Pedersen NOR NOR 6:22.98200m - 18.70 - (18.7)
600m - 48.55 - (29.8)
1000m - 1:18.79 - (30.2)
1400m - 1:48.92 - (30.1)
1800m - 2:19.13 - (30.2)
2200m - 2:49.56 - (30.4)
2600m - 3:19.83 - (30.2)
3000m - 3:49.98 - (30.1)
3400m - 4:20.26 - (30.2)
3800m - 4:50.52 - (30.2)
4200m - 5:20.81 - (30.2)
4600m - 5:51.32 - (30.5)
5000m - 6:22.98 - (31.6)
5.66 38.298
4 115 Koen  Verweij NED NED 6:23.86200m - 18.68 - (18.6)
600m - 47.50 - (28.8)
1000m - 1:16.98 - (29.4)
1400m - 1:46.52 - (29.5)
1800m - 2:16.39 - (29.8)
2200m - 2:46.62 - (30.2)
2600m - 3:17.10 - (30.4)
3000m - 3:47.65 - (30.5)
3400m - 4:18.45 - (30.8)
3800m - 4:49.62 - (31.1)
4200m - 5:21.19 - (31.5)
4600m - 5:52.62 - (31.4)
5000m - 6:23.86 - (31.2)
6.54 38.386
5 102 Bart  Swings BEL BEL 6:26.42200m - 18.95 - (18.9)
600m - 48.51 - (29.5)
1000m - 1:18.47 - (29.9)
1400m - 1:48.74 - (30.2)
1800m - 2:19.01 - (30.2)
2200m - 2:49.36 - (30.3)
2600m - 3:19.81 - (30.4)
3000m - 3:50.17 - (30.3)
3400m - 4:20.62 - (30.4)
3800m - 4:51.38 - (30.7)
4200m - 5:22.65 - (31.2)
4600m - 5:54.32 - (31.6)
5000m - 6:26.42 - (32.1)
9.10 38.642
6 124 Denis  Yuskov RUS RUS 6:27.43200m - 18.87 - (18.8)
600m - 49.16 - (30.2)
1000m - 1:19.58 - (30.4)
1400m - 1:49.65 - (30.0)
1800m - 2:19.92 - (30.2)
2200m - 2:50.25 - (30.3)
2600m - 3:21.18 - (30.9)
3000m - 3:52.11 - (30.9)
3400m - 4:23.47 - (31.3)
3800m - 4:54.92 - (31.4)
4200m - 5:25.74 - (30.8)
4600m - 5:56.38 - (30.6)
5000m - 6:27.43 - (31.0)
10.11 38.743
7 111 Haralds  Silovs LAT LAT 6:31.68200m - 19.03 - (19.0)
600m - 49.56 - (30.5)
1000m - 1:20.99 - (31.4)
1400m - 1:52.53 - (31.5)
1800m - 2:23.91 - (31.3)
2200m - 2:55.16 - (31.2)
2600m - 3:26.29 - (31.1)
3000m - 3:57.54 - (31.2)
3400m - 4:28.69 - (31.1)
3800m - 4:59.72 - (31.0)
4200m - 5:30.45 - (30.7)
4600m - 6:01.08 - (30.6)
5000m - 6:31.68 - (30.6)
14.36 39.168
8 123 Danil  Sinitsyn RUS RUS 6:32.61200m - 19.45 - (19.4)
600m - 49.92 - (30.4)
1000m - 1:20.54 - (30.6)
1400m - 1:51.24 - (30.7)
1800m - 2:21.48 - (30.2)
2200m - 2:51.85 - (30.3)
2600m - 3:22.35 - (30.5)
3000m - 3:53.08 - (30.7)
3400m - 4:24.42 - (31.3)
3800m - 4:56.32 - (31.9)
4200m - 5:28.65 - (32.3)
4600m - 6:01.15 - (32.5)
5000m - 6:32.61 - (31.4)
15.29 39.261
9 116 Håvard  Bøkko NOR NOR 6:33.97200m - 18.85 - (18.8)
600m - 48.81 - (29.9)
1000m - 1:19.27 - (30.4)
1400m - 1:50.08 - (30.8)
1800m - 2:20.76 - (30.6)
2200m - 2:51.77 - (31.0)
2600m - 3:22.99 - (31.2)
3000m - 3:54.19 - (31.2)
3400m - 4:25.57 - (31.3)
3800m - 4:57.32 - (31.7)
4200m - 5:29.23 - (31.9)
4600m - 6:01.56 - (32.3)
5000m - 6:33.97 - (32.4)
16.65 39.397
10 106 Jonas  Pflug GER GER 6:36.45200m - 19.24 - (19.2)
600m - 50.34 - (31.1)
1000m - 1:21.80 - (31.4)
1400m - 1:52.85 - (31.0)
1800m - 2:23.86 - (31.0)
2200m - 2:54.70 - (30.8)
2600m - 3:25.82 - (31.1)
3000m - 3:57.34 - (31.5)
3400m - 4:29.06 - (31.7)
3800m - 5:00.77 - (31.7)
4200m - 5:32.65 - (31.8)
4600m - 6:04.69 - (32.0)
5000m - 6:36.45 - (31.7)
19.13 39.645
11 121 Jan  Szymanski POL POL 6:36.49200m - 18.69 - (18.6)
600m - 49.49 - (30.8)
1000m - 1:20.92 - (31.4)
1400m - 1:52.17 - (31.2)
1800m - 2:23.10 - (30.9)
2200m - 2:53.94 - (30.8)
2600m - 3:25.06 - (31.1)
3000m - 3:56.25 - (31.1)
3400m - 4:27.72 - (31.4)
3800m - 4:58.72 - (31.0)
4200m - 5:30.87 - (32.1)
4600m - 6:04.30 - (33.4)
5000m - 6:36.49 - (32.1)
19.17 39.649
12 108 Andrea  Giovannini ITA ITA 6:39.04200m - 19.21 - (19.2)
600m - 49.72 - (30.5)
1000m - 1:21.30 - (31.5)
1400m - 1:53.06 - (31.7)
1800m - 2:24.90 - (31.8)
2200m - 2:56.68 - (31.7)
2600m - 3:28.70 - (32.0)
3000m - 4:00.58 - (31.8)
3400m - 4:32.28 - (31.7)
3800m - 5:04.04 - (31.7)
4200m - 5:35.83 - (31.7)
4600m - 6:07.56 - (31.7)
5000m - 6:39.04 - (31.4)
21.72 39.904
13 109 Luca  Stefani ITA ITA 6:44.61200m - 19.32 - (19.3)
600m - 50.15 - (30.8)
1000m - 1:22.03 - (31.8)
1400m - 1:54.64 - (32.6)
1800m - 2:26.93 - (32.2)
2200m - 2:59.46 - (32.5)
2600m - 3:31.81 - (32.3)
3000m - 4:04.32 - (32.5)
3400m - 4:36.40 - (32.0)
3800m - 5:08.69 - (32.2)
4200m - 5:40.68 - (31.9)
4600m - 6:12.82 - (32.1)
5000m - 6:44.61 - (31.8)
27.29 40.461
14 120 Piotr  Puszkarski POL POL 6:45.17200m - 19.61 - (19.6)
600m - 51.37 - (31.7)
1000m - 1:23.56 - (32.1)
1400m - 1:55.95 - (32.3)
1800m - 2:28.08 - (32.1)
2200m - 3:00.02 - (31.9)
2600m - 3:31.86 - (31.8)
3000m - 4:03.66 - (31.8)
3400m - 4:35.32 - (31.6)
3800m - 5:06.95 - (31.6)
4200m - 5:39.07 - (32.1)
4600m - 6:11.86 - (32.7)
5000m - 6:45.17 - (33.3)
27.85 40.517
15 103 Vitaly  Mikhailov BLR BLR 6:45.82200m - 19.92 - (19.9)
600m - 51.11 - (31.1)
1000m - 1:22.30 - (31.1)
1400m - 1:54.00 - (31.7)
1800m - 2:25.46 - (31.4)
2200m - 2:57.24 - (31.7)
2600m - 3:28.94 - (31.7)
3000m - 4:00.94 - (32.0)
3400m - 4:33.19 - (32.2)
3800m - 5:06.05 - (32.8)
4200m - 5:38.94 - (32.8)
4600m - 6:12.34 - (33.4)
5000m - 6:45.82 - (33.4)
28.50 40.582
16 125 Martin  Hänggi SUI SUI 6:47.57200m - 20.13 - (20.1)
600m - 51.54 - (31.4)
1000m - 1:23.49 - (31.9)
1400m - 1:55.77 - (32.2)
1800m - 2:28.06 - (32.2)
2200m - 3:00.55 - (32.4)
2600m - 3:33.05 - (32.5)
3000m - 4:05.80 - (32.7)
3400m - 4:38.58 - (32.7)
3800m - 5:10.94 - (32.3)
4200m - 5:43.06 - (32.1)
4600m - 6:15.12 - (32.0)
5000m - 6:47.57 - (32.4)
30.25 40.757
17 117 Simen  Spieler Nilsen NOR NOR 6:48.95200m - 18.69 - (18.6)
600m - 48.89 - (30.2)
1000m - 1:20.40 - (31.5)
1400m - 1:52.28 - (31.8)
1800m - 2:24.32 - (32.0)
2200m - 2:56.28 - (31.9)
2600m - 3:28.46 - (32.1)
3000m - 4:00.91 - (32.4)
3400m - 4:33.68 - (32.7)
3800m - 5:06.88 - (33.2)
4200m - 5:40.65 - (33.7)
4600m - 6:14.46 - (33.8)
5000m - 6:48.95 - (34.4)
31.63 40.895
18 101 Bram  Smallenbroek AUT AUT 6:49.74200m - 19.26 - (19.2)
600m - 49.68 - (30.4)
1000m - 1:20.97 - (31.2)
1400m - 1:52.88 - (31.9)
1800m - 2:25.08 - (32.2)
2200m - 2:57.40 - (32.3)
2600m - 3:29.76 - (32.3)
3000m - 4:02.39 - (32.6)
3400m - 4:35.34 - (32.9)
3800m - 5:08.48 - (33.1)
4200m - 5:41.81 - (33.3)
4600m - 6:15.40 - (33.5)
5000m - 6:49.74 - (34.3)
32.42 40.974
19 107 Konrád  Nagy HUN HUN 6:53.53200m - 19.41 - (19.4)
600m - 51.12 - (31.7)
1000m - 1:23.54 - (32.4)
1400m - 1:55.47 - (31.9)
1800m - 2:27.85 - (32.3)
2200m - 3:00.10 - (32.2)
2600m - 3:32.39 - (32.2)
3000m - 4:04.42 - (32.0)
3400m - 4:37.06 - (32.6)
3800m - 5:10.63 - (33.5)
4200m - 5:44.48 - (33.8)
4600m - 6:18.99 - (34.5)
5000m - 6:53.53 - (34.5)
36.21 41.353
20 104 Viktor-Hald  Thorup DEN DEN 6:57.83200m - 19.82 - (19.8)
600m - 51.19 - (31.3)
1000m - 1:22.65 - (31.4)
1400m - 1:54.37 - (31.7)
1800m - 2:25.83 - (31.4)
2200m - 2:57.49 - (31.6)
2600m - 3:29.33 - (31.8)
3000m - 4:01.36 - (32.0)
3400m - 4:34.87 - (33.5)
3800m - 5:10.38 - (35.5)
4200m - 5:46.84 - (36.4)
4600m - 6:22.25 - (35.4)
5000m - 6:57.83 - (35.5)
40.51 41.783
21 126 David  Andersson SWE SWE 7:19.90200m - 18.68 - (18.6)
600m - 49.34 - (30.6)
1000m - 1:21.83 - (32.4)
1400m - 1:55.26 - (33.4)
1800m - 2:29.09 - (33.8)
2200m - 3:03.22 - (34.1)
2600m - 3:37.93 - (34.7)
3000m - 4:13.18 - (35.2)
3400m - 4:49.62 - (36.4)
3800m - 5:26.69 - (37.0)
4200m - 6:04.10 - (37.4)
4600m - 6:41.99 - (37.8)
5000m - 7:19.90 - (37.9)
62.58 43.990